LAN864 SCEL-SLVR

Flight info

Callsign LAN864
Flight time 2h 31m
Altitude 37000
Route GUVOL6B GUVOL UN527 JUA UW3 LAR UZ108 TUC/N0459F360 UW5 SAL/N0455F370 UL322 VIR
Aircraft A320/M-SDE3FGHIRWY/LB1

Departure

Time 2026-04-26 19:50
Airport Comodoro Arturo Merino Benítez International Airport (SCEL)

Arrival

Time 2026-04-26 22:21
Airport Viru Viru International Airport (SLVR)
Time Latitude Longitude Altitude Speed Heading
2026-04-26 18:40 -33.40078 -70.79797 1565 ft 0 kts 357°
2026-04-26 19:06 -33.40079 -70.79797 1592 ft 0 kts 357°
2026-04-26 19:26 -33.40078 -70.79797 1565 ft 0 kts 357°
2026-04-26 19:38 -33.40079 -70.79797 1565 ft 0 kts 357°
2026-04-26 19:38 -33.40100 -70.79796 1565 ft 4 kts 357°
2026-04-26 19:38 -33.40122 -70.79795 1565 ft 4 kts 342°
2026-04-26 19:38 -33.40140 -70.79778 1565 ft 4 kts 280°
2026-04-26 19:39 -33.40141 -70.79752 1564 ft 0 kts 267°
2026-04-26 19:42 -33.40141 -70.79753 1564 ft 1 kts 267°
2026-04-26 19:42 -33.40143 -70.79797 1565 ft 9 kts 267°
2026-04-26 19:42 -33.40161 -70.79900 1565 ft 16 kts 264°
2026-04-26 19:42 -33.40100 -70.80004 1566 ft 21 kts 348°
2026-04-26 19:43 -33.39941 -70.80020 1566 ft 24 kts 354°
2026-04-26 19:43 -33.39770 -70.80034 1566 ft 25 kts 357°
2026-04-26 19:43 -33.39598 -70.80042 1566 ft 22 kts
2026-04-26 19:43 -33.39444 -70.80059 1566 ft 23 kts 353°
2026-04-26 19:44 -33.39284 -70.80059 1566 ft 23 kts
2026-04-26 19:44 -33.39118 -70.80067 1566 ft 24 kts 357°
2026-04-26 19:44 -33.38955 -70.80077 1567 ft 22 kts 357°
2026-04-26 19:44 -33.38798 -70.80086 1567 ft 23 kts 356°
2026-04-26 19:45 -33.38631 -70.80095 1567 ft 24 kts 357°
2026-04-26 19:45 -33.38457 -70.80103 1567 ft 26 kts 356°
2026-04-26 19:45 -33.38274 -70.80111 1566 ft 27 kts 359°
2026-04-26 19:45 -33.38095 -70.80121 1566 ft 20 kts 355°
2026-04-26 19:46 -33.37955 -70.80131 1566 ft 20 kts 357°
2026-04-26 19:46 -33.37819 -70.80135 1566 ft 19 kts
2026-04-26 19:46 -33.37697 -70.80144 1566 ft 17 kts 356°
2026-04-26 19:46 -33.37589 -70.80150 1566 ft 14 kts 358°
2026-04-26 19:47 -33.37492 -70.80155 1566 ft 15 kts 357°
2026-04-26 19:47 -33.37456 -70.80157 1567 ft 16 kts 356°
2026-04-26 19:47 -33.37236 -70.80169 1567 ft 22 kts 358°
2026-04-26 19:47 -33.37072 -70.80176 1566 ft 24 kts 356°
2026-04-26 19:48 -33.37014 -70.80245 1568 ft 0 kts 266°
2026-04-26 19:48 -33.37016 -70.80269 1569 ft 6 kts 257°
2026-04-26 19:48 -33.37056 -70.80312 1573 ft 10 kts 206°
2026-04-26 19:49 -33.37138 -70.80359 1574 ft 15 kts 205°
2026-04-26 19:49 -33.37219 -70.80373 1573 ft 0 kts 178°
2026-04-26 19:49 -33.37250 -70.80372 1573 ft 25 kts 178°
2026-04-26 19:49 -33.37698 -70.80348 1572 ft 100 kts 178°
2026-04-26 19:50 -33.38590 -70.80300 1574 ft 156 kts 178°
2026-04-26 19:50 -33.39767 -70.80242 1928 ft 174 kts 177°
2026-04-26 19:50 -33.41016 -70.80167 2542 ft 185 kts 178°
2026-04-26 19:50 -33.42322 -70.80102 3134 ft 194 kts 178°
2026-04-26 19:51 -33.43742 -70.80033 3535 ft 214 kts 177°
2026-04-26 19:51 -33.44782 -70.79972 3868 ft 228 kts 177°
2026-04-26 19:51 -33.46953 -70.80253 4571 ft 252 kts 206°
2026-04-26 19:51 -33.48239 -70.81748 5220 ft 270 kts 240°
2026-04-26 19:52 -33.48629 -70.83171 5743 ft 276 kts 263°
2026-04-26 19:52 -33.48506 -70.85471 6656 ft 279 kts 279°
2026-04-26 19:52 -33.48149 -70.87763 7508 ft 282 kts 279°
2026-04-26 19:52 -33.47793 -70.90096 8290 ft 287 kts 278°
2026-04-26 19:53 -33.47428 -70.92458 9114 ft 291 kts 280°
2026-04-26 19:53 -33.46761 -70.94770 9942 ft 297 kts 296°
2026-04-26 19:53 -33.45510 -70.96757 10690 ft 304 kts 318°
2026-04-26 19:53 -33.43652 -70.97979 11430 ft 310 kts 345°
2026-04-26 19:54 -33.41467 -70.98154 11924 ft 326 kts
2026-04-26 19:54 -33.39116 -70.97989 12134 ft 350 kts
2026-04-26 19:54 -33.36609 -70.97734 12333 ft 372 kts
2026-04-26 19:54 -33.33997 -70.97438 12858 ft 381 kts
2026-04-26 19:55 -33.31340 -70.97140 13518 ft 386 kts
2026-04-26 19:55 -33.28648 -70.96857 14149 ft 391 kts
2026-04-26 19:55 -33.25916 -70.96590 14721 ft 395 kts
2026-04-26 19:55 -33.23170 -70.96135 15230 ft 402 kts 11°
2026-04-26 19:56 -33.20523 -70.95116 15787 ft 408 kts 22°
2026-04-26 19:56 -33.18022 -70.93484 16385 ft 413 kts 34°
2026-04-26 19:56 -33.15676 -70.91477 16917 ft 416 kts 34°
2026-04-26 19:56 -33.13314 -70.89448 17455 ft 421 kts 35°
2026-04-26 19:57 -33.10924 -70.87403 18012 ft 425 kts 35°
2026-04-26 19:57 -33.08502 -70.85338 18527 ft 430 kts 34°
2026-04-26 19:57 -33.06055 -70.83256 19021 ft 434 kts 34°
2026-04-26 19:57 -33.03589 -70.81151 19493 ft 438 kts 35°
2026-04-26 19:58 -33.01120 -70.78995 20015 ft 441 kts 35°
2026-04-26 19:58 -32.98657 -70.76807 20523 ft 444 kts 36°
2026-04-26 19:58 -32.96181 -70.74591 21030 ft 447 kts 35°
2026-04-26 19:58 -32.93627 -70.72472 21508 ft 448 kts 28°
2026-04-26 19:59 -32.90826 -70.70846 21982 ft 448 kts 18°
2026-04-26 19:59 -32.87842 -70.69807 22463 ft 447 kts
2026-04-26 19:59 -32.84809 -70.69366 22914 ft 445 kts 359°
2026-04-26 19:59 -32.81711 -70.69176 23357 ft 447 kts 359°
2026-04-26 20:00 -32.78594 -70.68977 23784 ft 449 kts 359°
2026-04-26 20:00 -32.75459 -70.68770 24151 ft 452 kts 359°
2026-04-26 20:00 -32.72309 -70.68558 24509 ft 454 kts 359°
2026-04-26 20:00 -32.69152 -70.68327 24866 ft 457 kts
2026-04-26 20:01 -32.66006 -70.67631 25230 ft 464 kts 13°
2026-04-26 20:01 -32.62985 -70.66222 25565 ft 470 kts 25°
2026-04-26 20:01 -32.60214 -70.64123 25903 ft 476 kts 37°
2026-04-26 20:01 -32.57815 -70.61404 26239 ft 480 kts 49°
2026-04-26 20:02 -32.55878 -70.58171 26567 ft 483 kts 59°
2026-04-26 20:02 -32.54136 -70.54758 26847 ft 486 kts 59°
2026-04-26 20:02 -32.52401 -70.51370 27140 ft 488 kts 58°
2026-04-26 20:02 -32.51211 -70.49051 27355 ft 488 kts 58°
2026-04-26 20:03 -32.48859 -70.44486 27749 ft 492 kts 58°
2026-04-26 20:03 -32.47070 -70.41022 28054 ft 494 kts 58°
2026-04-26 20:03 -32.45274 -70.37543 28346 ft 496 kts 58°
2026-04-26 20:03 -32.43469 -70.34050 28593 ft 498 kts 58°
2026-04-26 20:04 -32.41658 -70.30547 28860 ft 500 kts 58°
2026-04-26 20:04 -32.39839 -70.27029 29115 ft 502 kts 58°
2026-04-26 20:04 -32.38012 -70.23502 29364 ft 503 kts 58°
2026-04-26 20:04 -32.36228 -70.19941 29680 ft 503 kts 60°
2026-04-26 20:05 -32.34557 -70.16313 29988 ft 502 kts 62°
2026-04-26 20:05 -32.32969 -70.12635 30307 ft 502 kts 63°
2026-04-26 20:05 -32.31418 -70.08927 30547 ft 503 kts 64°
2026-04-26 20:05 -32.29870 -70.05223 30771 ft 504 kts 63°
2026-04-26 20:06 -32.28297 -70.01521 31004 ft 504 kts 62°
2026-04-26 20:06 -32.26719 -69.97888 31277 ft 504 kts 62°
2026-04-26 20:06 -32.25095 -69.94217 31514 ft 504 kts 61°
2026-04-26 20:06 -32.23455 -69.90552 31771 ft 505 kts 61°
2026-04-26 20:07 -32.21813 -69.86892 32032 ft 504 kts 61°
2026-04-26 20:07 -32.20169 -69.83229 32279 ft 504 kts 61°
2026-04-26 20:07 -32.18533 -69.79566 32489 ft 505 kts 61°
2026-04-26 20:07 -32.16902 -69.75893 32730 ft 505 kts 61°
2026-04-26 20:08 -32.15275 -69.72217 32967 ft 505 kts 61°
2026-04-26 20:08 -32.13648 -69.68544 33229 ft 505 kts 60°
2026-04-26 20:08 -32.12019 -69.64876 33494 ft 504 kts 60°
2026-04-26 20:08 -32.10387 -69.61212 33761 ft 504 kts 60°
2026-04-26 20:09 -32.08754 -69.57550 33987 ft 505 kts 60°
2026-04-26 20:09 -32.07137 -69.53932 34171 ft 505 kts 60°
2026-04-26 20:09 -32.05495 -69.50269 34376 ft 506 kts 60°
2026-04-26 20:09 -32.03849 -69.46605 34553 ft 506 kts 60°
2026-04-26 20:10 -32.02200 -69.42935 34743 ft 507 kts 60°
2026-04-26 20:10 -32.00554 -69.39267 34923 ft 507 kts 60°
2026-04-26 20:10 -31.98908 -69.35587 35115 ft 508 kts 60°
2026-04-26 20:10 -31.97262 -69.31905 35304 ft 509 kts 60°
2026-04-26 20:11 -31.95610 -69.28218 35502 ft 509 kts 60°
2026-04-26 20:11 -31.93949 -69.24530 35687 ft 510 kts 59°
2026-04-26 20:11 -31.92281 -69.20848 35893 ft 511 kts 59°
2026-04-26 20:12 -31.88929 -69.13459 36260 ft 512 kts 59°
2026-04-26 20:12 -31.87249 -69.09752 36458 ft 512 kts 58°
2026-04-26 20:12 -31.85576 -69.06050 36680 ft 511 kts 59°
2026-04-26 20:12 -31.83928 -69.02407 36824 ft 512 kts 59°
2026-04-26 20:13 -31.82253 -68.98711 36976 ft 512 kts 59°
2026-04-26 20:13 -31.80573 -68.95013 37089 ft 514 kts 59°
2026-04-26 20:13 -31.78878 -68.91288 37107 ft 518 kts 58°
2026-04-26 20:14 -31.75472 -68.83805 37122 ft 520 kts 58°
2026-04-26 20:14 -31.72057 -68.76313 37131 ft 521 kts 58°
2026-04-26 20:15 -31.68627 -68.68801 37123 ft 521 kts 58°
2026-04-26 20:15 -31.65194 -68.61298 37123 ft 522 kts 58°
2026-04-26 20:16 -31.61768 -68.53838 37111 ft 523 kts 58°
2026-04-26 20:16 -31.58204 -68.46406 37104 ft 520 kts 51°
2026-04-26 20:17 -31.53457 -68.40188 37098 ft 506 kts 32°
2026-04-26 20:17 -31.47748 -68.35563 37091 ft 498 kts 25°
2026-04-26 20:18 -31.41931 -68.31141 37086 ft 499 kts 25°
2026-04-26 20:18 -31.36111 -68.26699 37082 ft 499 kts 25°
2026-04-26 20:19 -31.30288 -68.22266 37080 ft 500 kts 25°
2026-04-26 20:19 -31.24448 -68.17832 37074 ft 500 kts 25°
2026-04-26 20:20 -31.18607 -68.13412 37071 ft 500 kts 24°
2026-04-26 20:20 -31.12800 -68.09019 37070 ft 501 kts 24°
2026-04-26 20:21 -31.06949 -68.04601 37063 ft 501 kts 24°
2026-04-26 20:21 -31.01089 -68.00179 37053 ft 501 kts 24°
2026-04-26 20:22 -30.95228 -67.95764 37044 ft 502 kts 24°
2026-04-26 20:22 -30.89357 -67.91350 37039 ft 502 kts 24°
2026-04-26 20:23 -30.83478 -67.86940 37034 ft 503 kts 24°
2026-04-26 20:23 -30.77591 -67.82529 37032 ft 503 kts 23°
2026-04-26 20:24 -30.71742 -67.78146 37035 ft 504 kts 23°
2026-04-26 20:24 -30.65845 -67.73739 37045 ft 504 kts 23°
2026-04-26 20:25 -30.59949 -67.69337 37057 ft 504 kts 23°
2026-04-26 20:25 -30.54054 -67.64947 37034 ft 503 kts 23°
2026-04-26 20:26 -30.48153 -67.60562 37028 ft 504 kts 22°
2026-04-26 20:26 -30.42253 -67.56171 37029 ft 504 kts 22°
2026-04-26 20:27 -30.36350 -67.51781 37029 ft 504 kts 22°
2026-04-26 20:27 -30.30437 -67.47400 37032 ft 505 kts 22°
2026-04-26 20:28 -30.24550 -67.43048 37030 ft 505 kts 22°
2026-04-26 20:28 -30.18623 -67.38676 37026 ft 505 kts 22°
2026-04-26 20:29 -30.12695 -67.34313 37019 ft 506 kts 22°
2026-04-26 20:29 -30.06755 -67.29933 37018 ft 506 kts 22°
2026-04-26 20:30 -30.00818 -67.25557 36996 ft 505 kts 22°
2026-04-26 20:30 -29.94890 -67.21202 37006 ft 507 kts 21°
2026-04-26 20:31 -29.88931 -67.16838 37011 ft 507 kts 21°
2026-04-26 20:31 -29.83011 -67.12503 37016 ft 508 kts 21°
2026-04-26 20:32 -29.77047 -67.08139 36991 ft 507 kts 21°
2026-04-26 20:32 -29.71088 -67.03785 36996 ft 506 kts 21°
2026-04-26 20:33 -29.65131 -66.99442 36990 ft 508 kts 21°
2026-04-26 20:33 -29.59155 -66.95095 36999 ft 508 kts 21°
2026-04-26 20:34 -29.53178 -66.90747 37004 ft 508 kts 21°
2026-04-26 20:34 -29.47200 -66.86408 37008 ft 508 kts 20°
2026-04-26 20:35 -29.41234 -66.82072 37005 ft 508 kts 20°
2026-04-26 20:35 -29.35349 -66.77645 37002 ft 512 kts 24°
2026-04-26 20:36 -29.29577 -66.72775 37003 ft 516 kts 26°
2026-04-26 20:36 -29.23862 -66.67782 37003 ft 516 kts 26°
2026-04-26 20:37 -29.18110 -66.62887 36999 ft 514 kts 25°
2026-04-26 20:37 -29.12315 -66.58079 36993 ft 514 kts 24°
2026-04-26 20:38 -29.06525 -66.53280 36987 ft 515 kts 25°
2026-04-26 20:38 -29.00743 -66.48452 36980 ft 515 kts 25°
2026-04-26 20:39 -28.94994 -66.43652 36983 ft 515 kts 25°
2026-04-26 20:39 -28.89198 -66.38833 36978 ft 515 kts 24°
2026-04-26 20:40 -28.83395 -66.34017 36995 ft 515 kts 24°
2026-04-26 20:40 -28.77594 -66.29210 36985 ft 515 kts 24°
2026-04-26 20:41 -28.71793 -66.24404 37016 ft 517 kts 25°
2026-04-26 20:41 -28.66002 -66.19607 36991 ft 514 kts 24°
2026-04-26 20:42 -28.60247 -66.14850 37012 ft 515 kts 24°
2026-04-26 20:42 -28.54450 -66.10076 36999 ft 514 kts 24°
2026-04-26 20:43 -28.48662 -66.05313 36995 ft 514 kts 24°
2026-04-26 20:43 -28.42866 -66.00542 37008 ft 514 kts 24°
2026-04-26 20:44 -28.37075 -65.95779 37013 ft 514 kts 24°
2026-04-26 20:44 -28.31289 -65.91030 37012 ft 511 kts 24°
2026-04-26 20:45 -28.25530 -65.86307 37023 ft 511 kts 24°
2026-04-26 20:45 -28.19761 -65.81598 37024 ft 511 kts 24°
2026-04-26 20:46 -28.13986 -65.76884 37038 ft 512 kts 24°
2026-04-26 20:46 -28.08210 -65.72165 37013 ft 511 kts 24°
2026-04-26 20:47 -28.02428 -65.67452 37011 ft 512 kts 24°
2026-04-26 20:47 -27.96691 -65.62784 36993 ft 510 kts 24°
2026-04-26 20:48 -27.90911 -65.58094 36988 ft 513 kts 24°
2026-04-26 20:48 -27.85108 -65.53387 36994 ft 513 kts 24°
2026-04-26 20:49 -27.79309 -65.48685 36997 ft 513 kts 24°
2026-04-26 20:49 -27.74446 -65.44759 36994 ft 511 kts 22°
2026-04-26 20:49 -27.71430 -65.42761 36994 ft 495 kts 13°
2026-04-26 20:50 -27.68341 -65.41324 36992 ft 480 kts
2026-04-26 20:50 -27.62005 -65.39017 36987 ft 478 kts
2026-04-26 20:51 -27.55667 -65.36708 36983 ft 478 kts
2026-04-26 20:51 -27.49341 -65.34392 36984 ft 478 kts
2026-04-26 20:52 -27.43009 -65.32072 36980 ft 478 kts
2026-04-26 20:52 -27.36677 -65.29759 36980 ft 478 kts
2026-04-26 20:53 -27.30344 -65.27452 36993 ft 478 kts
2026-04-26 20:53 -27.24017 -65.25139 36983 ft 478 kts
2026-04-26 20:54 -27.17684 -65.22835 36981 ft 478 kts
2026-04-26 20:54 -27.11414 -65.20562 36985 ft 478 kts
2026-04-26 20:55 -27.05116 -65.18287 36989 ft 479 kts
2026-04-26 20:55 -26.98778 -65.15990 36994 ft 479 kts
2026-04-26 20:56 -26.92430 -65.13687 36996 ft 479 kts
2026-04-26 20:56 -26.86081 -65.11706 36996 ft 462 kts 355°
2026-04-26 20:56 -26.82933 -65.11454 37000 ft 446 kts 346°
2026-04-26 20:57 -26.79893 -65.11732 36996 ft 431 kts 338°
2026-04-26 20:57 -26.73998 -65.12878 36993 ft 430 kts 338°
2026-04-26 20:58 -26.68092 -65.14008 36992 ft 431 kts 338°
2026-04-26 20:58 -26.62176 -65.15132 36995 ft 431 kts 338°
2026-04-26 20:59 -26.56259 -65.16260 37004 ft 431 kts 338°
2026-04-26 20:59 -26.50342 -65.17388 37012 ft 432 kts 339°
2026-04-26 21:00 -26.44422 -65.18515 37012 ft 431 kts 339°
2026-04-26 21:00 -26.38508 -65.19639 37014 ft 431 kts 339°
2026-04-26 21:01 -26.32593 -65.20765 37014 ft 431 kts 339°
2026-04-26 21:01 -26.26710 -65.21881 37019 ft 431 kts 339°
2026-04-26 21:02 -26.20796 -65.23002 37009 ft 431 kts 339°
2026-04-26 21:02 -26.14879 -65.24123 37013 ft 431 kts 339°
2026-04-26 21:03 -26.08964 -65.25245 37025 ft 431 kts 339°
2026-04-26 21:03 -26.03044 -65.26365 37026 ft 431 kts 340°
2026-04-26 21:04 -25.97130 -65.27480 37026 ft 431 kts 340°
2026-04-26 21:04 -25.91213 -65.28593 37027 ft 430 kts 340°
2026-04-26 21:05 -25.85313 -65.29701 37033 ft 430 kts 340°
2026-04-26 21:05 -25.79395 -65.30816 37049 ft 431 kts 340°
2026-04-26 21:06 -25.73518 -65.31925 37048 ft 430 kts 340°
2026-04-26 21:06 -25.67611 -65.33035 37045 ft 430 kts 340°
2026-04-26 21:07 -25.61710 -65.34136 37043 ft 430 kts 340°
2026-04-26 21:07 -25.55804 -65.35246 37040 ft 430 kts 340°
2026-04-26 21:08 -25.49900 -65.36357 37049 ft 431 kts 340°
2026-04-26 21:08 -25.43987 -65.37461 37048 ft 430 kts 340°
2026-04-26 21:09 -25.38083 -65.38567 37042 ft 430 kts 340°
2026-04-26 21:09 -25.32218 -65.39664 37037 ft 430 kts 341°
2026-04-26 21:10 -25.26305 -65.40766 37034 ft 430 kts 341°
2026-04-26 21:10 -25.20434 -65.41856 37032 ft 431 kts 341°
2026-04-26 21:11 -25.14513 -65.42955 37044 ft 431 kts 341°
2026-04-26 21:11 -25.08597 -65.44055 37055 ft 431 kts 341°
2026-04-26 21:12 -25.02678 -65.45160 37068 ft 432 kts 341°
2026-04-26 21:12 -24.96795 -65.46252 37084 ft 432 kts 341°
2026-04-26 21:13 -24.90859 -65.47347 37093 ft 432 kts 341°
2026-04-26 21:13 -24.84798 -65.47855 37078 ft 450 kts 356°
2026-04-26 21:13 -24.81677 -65.47211 37075 ft 464 kts
2026-04-26 21:14 -24.78579 -65.46156 37081 ft 466 kts
2026-04-26 21:14 -24.72376 -65.44046 37076 ft 467 kts
2026-04-26 21:15 -24.66161 -65.41942 37058 ft 467 kts
2026-04-26 21:15 -24.59947 -65.39842 37065 ft 467 kts
2026-04-26 21:16 -24.53729 -65.37743 37057 ft 467 kts
2026-04-26 21:16 -24.47513 -65.35643 37066 ft 468 kts
2026-04-26 21:17 -24.41328 -65.33562 37066 ft 468 kts
2026-04-26 21:17 -24.35100 -65.31470 37063 ft 467 kts
2026-04-26 21:18 -24.28886 -65.29383 37067 ft 467 kts
2026-04-26 21:18 -24.22658 -65.27295 37062 ft 467 kts
2026-04-26 21:19 -24.16443 -65.25211 37076 ft 467 kts
2026-04-26 21:19 -24.10221 -65.23126 37081 ft 467 kts
2026-04-26 21:20 -24.04004 -65.21044 37090 ft 467 kts
2026-04-26 21:20 -23.97825 -65.18975 37088 ft 467 kts
2026-04-26 21:21 -23.91615 -65.16896 37086 ft 466 kts
2026-04-26 21:21 -23.85411 -65.14824 37092 ft 466 kts
2026-04-26 21:22 -23.79209 -65.12757 37095 ft 467 kts
2026-04-26 21:22 -23.72990 -65.10682 37095 ft 466 kts 10°
2026-04-26 21:23 -23.63725 -65.07593 37091 ft 466 kts 10°
2026-04-26 21:23 -23.57513 -65.05533 37098 ft 466 kts 10°
2026-04-26 21:24 -23.51315 -65.03478 37099 ft 466 kts 10°
2026-04-26 21:24 -23.45119 -65.01420 37093 ft 466 kts 10°
2026-04-26 21:25 -23.38917 -64.99366 37098 ft 465 kts 10°
2026-04-26 21:25 -23.32731 -64.97319 37088 ft 464 kts 10°
2026-04-26 21:26 -23.26556 -64.95278 37072 ft 464 kts 10°
2026-04-26 21:26 -23.20374 -64.93241 37070 ft 464 kts 10°
2026-04-26 21:27 -23.14196 -64.91200 37066 ft 465 kts 11°
2026-04-26 21:27 -23.08041 -64.89164 37057 ft 465 kts 11°
2026-04-26 21:28 -23.01846 -64.87125 37068 ft 465 kts 11°
2026-04-26 21:28 -22.95646 -64.85090 37067 ft 465 kts 11°
2026-04-26 21:29 -22.89448 -64.83044 37061 ft 465 kts 11°
2026-04-26 21:29 -22.83244 -64.81010 37060 ft 466 kts 11°
2026-04-26 21:30 -22.77046 -64.78978 37061 ft 466 kts 11°
2026-04-26 21:30 -22.71892 -64.77286 37058 ft 466 kts 11°
2026-04-26 21:31 -22.64645 -64.74907 37059 ft 465 kts 11°
2026-04-26 21:31 -22.58443 -64.72888 37060 ft 465 kts 11°
2026-04-26 21:32 -22.52287 -64.70870 37056 ft 465 kts 11°
2026-04-26 21:32 -22.46087 -64.68843 37055 ft 465 kts 11°
2026-04-26 21:33 -22.39899 -64.66830 37060 ft 465 kts 11°
2026-04-26 21:33 -22.33698 -64.64813 37055 ft 464 kts 11°
2026-04-26 21:34 -22.27517 -64.62802 37063 ft 464 kts 12°
2026-04-26 21:34 -22.21332 -64.60786 37054 ft 464 kts 12°
2026-04-26 21:35 -22.15191 -64.58814 37047 ft 464 kts 12°
2026-04-26 21:35 -22.08993 -64.56850 37058 ft 465 kts 11°
2026-04-26 21:36 -22.03795 -64.55192 37058 ft 465 kts 12°
2026-04-26 21:36 -21.96601 -64.52893 37059 ft 464 kts 12°
2026-04-26 21:37 -21.90408 -64.50919 37055 ft 464 kts 12°
2026-04-26 21:37 -21.84220 -64.48943 37059 ft 464 kts 12°
2026-04-26 21:38 -21.78024 -64.46975 37070 ft 463 kts 12°
2026-04-26 21:38 -21.71844 -64.45014 37070 ft 463 kts 12°
2026-04-26 21:39 -21.65664 -64.43046 37074 ft 463 kts 12°
2026-04-26 21:39 -21.59521 -64.41106 37075 ft 463 kts 12°
2026-04-26 21:40 -21.53343 -64.39143 37072 ft 463 kts 12°
2026-04-26 21:40 -21.47163 -64.37178 37052 ft 463 kts 12°
2026-04-26 21:41 -21.40986 -64.35224 37047 ft 463 kts 12°
2026-04-26 21:41 -21.34804 -64.33273 37032 ft 463 kts 12°
2026-04-26 21:42 -21.29657 -64.31639 37031 ft 464 kts 12°
2026-04-26 21:42 -21.23473 -64.29652 37025 ft 464 kts 13°
2026-04-26 21:43 -21.17298 -64.27665 37028 ft 463 kts 13°
2026-04-26 21:43 -21.11115 -64.25694 37027 ft 464 kts 13°
2026-04-26 21:44 -21.04933 -64.23722 37009 ft 462 kts 13°
2026-04-26 21:44 -20.98737 -64.21756 37021 ft 464 kts 13°
2026-04-26 21:45 -20.92588 -64.19803 37033 ft 464 kts 13°
2026-04-26 21:45 -20.86402 -64.17823 37026 ft 464 kts 13°
2026-04-26 21:46 -20.80213 -64.15849 37016 ft 464 kts 13°
2026-04-26 21:46 -20.74015 -64.13894 37019 ft 464 kts 13°
2026-04-26 21:47 -20.67825 -64.11930 37019 ft 464 kts 13°
2026-04-26 21:47 -20.61678 -64.09968 37019 ft 464 kts 13°
2026-04-26 21:48 -20.55492 -64.07991 37016 ft 464 kts 13°
2026-04-26 21:48 -20.49311 -64.06023 37025 ft 464 kts 13°
2026-04-26 21:49 -20.43136 -64.04048 37017 ft 463 kts 14°
2026-04-26 21:49 -20.36945 -64.02075 37015 ft 463 kts 13°
2026-04-26 21:50 -20.30768 -64.00108 37013 ft 463 kts 14°
2026-04-26 21:50 -20.24595 -63.98142 37012 ft 463 kts 14°
2026-04-26 21:51 -20.18422 -63.96180 37008 ft 463 kts 14°
2026-04-26 21:51 -20.12289 -63.94234 37008 ft 463 kts 14°
2026-04-26 21:52 -20.06112 -63.92273 37008 ft 463 kts 14°
2026-04-26 21:52 -19.99944 -63.90316 37010 ft 462 kts 14°
2026-04-26 21:53 -19.93766 -63.88363 37012 ft 462 kts 14°
2026-04-26 21:53 -19.87593 -63.86402 37012 ft 462 kts 14°
2026-04-26 21:54 -19.81433 -63.84434 37005 ft 461 kts 14°
2026-04-26 21:54 -19.75290 -63.82471 37002 ft 461 kts 14°
2026-04-26 21:55 -19.69145 -63.80509 37000 ft 461 kts 14°
2026-04-26 21:55 -19.63050 -63.78571 36998 ft 460 kts 14°
2026-04-26 21:56 -19.56918 -63.76627 37000 ft 460 kts 14°
2026-04-26 21:56 -19.50788 -63.74677 36999 ft 460 kts 14°
2026-04-26 21:57 -19.44669 -63.72727 36998 ft 459 kts 14°
2026-04-26 21:57 -19.38542 -63.70778 36991 ft 459 kts 14°
2026-04-26 21:58 -19.32426 -63.68850 36995 ft 459 kts 14°
2026-04-26 21:58 -19.26313 -63.66916 36994 ft 459 kts 14°
2026-04-26 21:59 -19.20188 -63.64961 36994 ft 459 kts 14°
2026-04-26 21:59 -19.14073 -63.63022 36991 ft 459 kts 14°
2026-04-26 22:00 -19.07953 -63.61099 36996 ft 458 kts 14°
2026-04-26 22:00 -19.01876 -63.59188 36997 ft 458 kts 14°
2026-04-26 22:01 -18.95767 -63.57261 36992 ft 458 kts 14°
2026-04-26 22:01 -18.89659 -63.55329 36914 ft 459 kts 14°
2026-04-26 22:02 -18.86606 -63.54354 36648 ft 458 kts 14°
2026-04-26 22:02 -18.83558 -63.53370 36400 ft 458 kts 14°
2026-04-26 22:02 -18.80508 -63.52383 36155 ft 459 kts 14°
2026-04-26 22:02 -18.77452 -63.51396 35914 ft 460 kts 15°
2026-04-26 22:03 -18.74388 -63.50411 35680 ft 461 kts 15°
2026-04-26 22:03 -18.71306 -63.49425 34919 ft 465 kts 15°
2026-04-26 22:03 -18.68195 -63.48429 34039 ft 469 kts 15°
2026-04-26 22:03 -18.65063 -63.47426 32971 ft 473 kts 15°
2026-04-26 22:04 -18.61897 -63.46414 31904 ft 477 kts 15°
2026-04-26 22:04 -18.58704 -63.45391 30858 ft 481 kts 16°
2026-04-26 22:04 -18.55491 -63.44362 29646 ft 485 kts 16°
2026-04-26 22:04 -18.52275 -63.43332 28431 ft 482 kts 16°
2026-04-26 22:05 -18.49139 -63.42328 27822 ft 472 kts 16°
2026-04-26 22:05 -18.46004 -63.41325 27050 ft 468 kts 16°
2026-04-26 22:05 -18.42896 -63.40330 26305 ft 464 kts 15°
2026-04-26 22:05 -18.39811 -63.39346 25561 ft 461 kts 15°
2026-04-26 22:06 -18.36753 -63.38370 24841 ft 457 kts 15°
2026-04-26 22:06 -18.33716 -63.37399 24126 ft 455 kts 15°
2026-04-26 22:06 -18.30702 -63.36437 23385 ft 452 kts 15°
2026-04-26 22:06 -18.27702 -63.35477 22639 ft 448 kts 15°
2026-04-26 22:07 -18.24737 -63.34525 22011 ft 443 kts 15°
2026-04-26 22:07 -18.21804 -63.33588 21383 ft 438 kts 15°
2026-04-26 22:07 -18.18908 -63.32665 20782 ft 433 kts 15°
2026-04-26 22:07 -18.16030 -63.31749 20217 ft 429 kts 15°
2026-04-26 22:08 -18.13173 -63.30841 19649 ft 425 kts 15°
2026-04-26 22:08 -18.10352 -63.29945 19108 ft 422 kts 15°
2026-04-26 22:08 -18.07586 -63.29063 18573 ft 419 kts 15°
2026-04-26 22:08 -18.04803 -63.28175 18004 ft 417 kts 15°
2026-04-26 22:09 -18.02040 -63.27294 17434 ft 413 kts 15°
2026-04-26 22:09 -17.99300 -63.26424 16889 ft 409 kts 15°
2026-04-26 22:09 -17.96589 -63.25563 16330 ft 405 kts 15°
2026-04-26 22:09 -17.93899 -63.24708 15772 ft 402 kts 15°
2026-04-26 22:10 -17.91226 -63.23859 15188 ft 400 kts 15°
2026-04-26 22:10 -17.88567 -63.23017 14605 ft 398 kts 15°
2026-04-26 22:10 -17.85929 -63.22184 14052 ft 396 kts 15°
2026-04-26 22:10 -17.83292 -63.21349 13413 ft 395 kts 15°
2026-04-26 22:11 -17.80696 -63.20523 12795 ft 382 kts 15°
2026-04-26 22:11 -17.78197 -63.19726 12194 ft 367 kts 15°
2026-04-26 22:11 -17.75795 -63.18959 11616 ft 357 kts 14°
2026-04-26 22:11 -17.73421 -63.18203 11021 ft 356 kts 14°
2026-04-26 22:12 -17.71069 -63.17455 10637 ft 348 kts 14°
2026-04-26 22:12 -17.68806 -63.16738 10519 ft 332 kts 14°
2026-04-26 22:12 -17.66642 -63.16054 10400 ft 318 kts 14°
2026-04-26 22:12 -17.64597 -63.15407 10287 ft 305 kts 14°
2026-04-26 22:13 -17.62570 -63.14957 10165 ft 290 kts
2026-04-26 22:13 -17.60594 -63.15023 9946 ft 280 kts 350°
2026-04-26 22:13 -17.58677 -63.15285 9891 ft 278 kts 351°
2026-04-26 22:13 -17.56748 -63.15543 9515 ft 279 kts 351°
2026-04-26 22:14 -17.54820 -63.15793 9120 ft 278 kts 351°
2026-04-26 22:14 -17.52909 -63.16035 8731 ft 276 kts 351°
2026-04-26 22:14 -17.51011 -63.16277 8349 ft 273 kts 351°
2026-04-26 22:14 -17.49126 -63.16518 7963 ft 271 kts 351°
2026-04-26 22:15 -17.47285 -63.16755 7594 ft 269 kts 351°
2026-04-26 22:15 -17.45436 -63.16994 7227 ft 267 kts 351°
2026-04-26 22:15 -17.43605 -63.17258 6852 ft 264 kts 345°
2026-04-26 22:15 -17.42047 -63.18167 6495 ft 258 kts 312°
2026-04-26 22:16 -17.41323 -63.19852 6158 ft 257 kts 277°
2026-04-26 22:16 -17.41710 -63.21643 5854 ft 256 kts 241°
2026-04-26 22:16 -17.43055 -63.22827 5590 ft 258 kts 203°
2026-04-26 22:16 -17.44830 -63.22965 5355 ft 259 kts 173°
2026-04-26 22:17 -17.46598 -63.22766 5049 ft 253 kts 187°
2026-04-26 22:17 -17.48252 -63.23230 4754 ft 244 kts 206°
2026-04-26 22:17 -17.49870 -63.23625 4434 ft 239 kts 177°
2026-04-26 22:17 -17.51368 -63.22989 4100 ft 231 kts 141°
2026-04-26 22:18 -17.52568 -63.21939 3819 ft 218 kts 141°
2026-04-26 22:18 -17.53749 -63.20998 3497 ft 207 kts 143°
2026-04-26 22:18 -17.54880 -63.20150 3233 ft 193 kts 145°
2026-04-26 22:18 -17.55946 -63.19382 3011 ft 179 kts 146°
2026-04-26 22:19 -17.56957 -63.18671 2759 ft 171 kts 146°
2026-04-26 22:19 -17.57937 -63.17992 2526 ft 168 kts 147°
2026-04-26 22:19 -17.58907 -63.17325 2297 ft 166 kts 147°
2026-04-26 22:19 -17.59862 -63.16674 2086 ft 160 kts 147°
2026-04-26 22:20 -17.60766 -63.16065 1825 ft 151 kts 147°
2026-04-26 22:20 -17.61348 -63.15668 1688 ft 144 kts 147°
2026-04-26 22:20 -17.62422 -63.14923 1448 ft 137 kts 147°
2026-04-26 22:20 -17.63214 -63.14386 1259 ft 134 kts 147°
2026-04-26 22:21 -17.63933 -63.13904 1229 ft 102 kts 147°
2026-04-26 22:21 -17.64383 -63.13601 1231 ft 52 kts 148°
2026-04-26 22:21 -17.64546 -63.13493 1233 ft 6 kts 148°
2026-04-26 22:21 -17.64614 -63.13446 1232 ft 21 kts 147°
2026-04-26 22:22 -17.64775 -63.13338 1232 ft 32 kts 147°
2026-04-26 22:22 -17.64965 -63.13209 1231 ft 27 kts 147°
2026-04-26 22:22 -17.65095 -63.13172 1231 ft 19 kts 208°
2026-04-26 22:22 -17.65170 -63.13303 1231 ft 13 kts 276°
2026-04-26 22:23 -17.65076 -63.13371 1231 ft 23 kts 328°
2026-04-26 22:23 -17.64930 -63.13466 1231 ft 21 kts 327°
2026-04-26 22:23 -17.64806 -63.13557 1231 ft 22 kts 306°
2026-04-26 22:23 -17.64853 -63.13699 1231 ft 23 kts 236°
2026-04-26 22:24 -17.64831 -63.13824 1231 ft 18 kts 327°
2026-04-26 22:24 -17.64785 -63.13898 1231 ft 11 kts 254°
2026-04-26 22:24 -17.64808 -63.13942 1231 ft 0 kts 238°